sat.trackr.live / text

‹ back to catalog

ZIYUAN 1-02C (ZY 1-02C)

NORAD 38038 · 2011-079A

PAYLOAD ACTIVE UNKNOWN

§ Identity

Operator
Country
PRC
Launch date
2011-12-22
Launch site
TAISC
Launch vehicle
Mass (kg)
RCS (m²)
4.56

Purposes: earth_obs

External: N2YO · Heavens-Above · Gunter

§ Orbital elements

Epoch: 2026-05-25T04:37:14.121984Z

Period
100.13 min
Inclination
98.4075°
Eccentricity
0.0006882
Mean motion
14.38192505 rev/d
Perigee alt
759.6 km
Apogee alt
769.4 km
Semi-major
7,142.6 km
B*
6.9820e-5
RAAN
212.9805°
Arg perigee
27.2821°
Mean anomaly
65.2455°
Rev number
75,590

§ Raw data

ZIYUAN 1-02C (ZY 1-02C)1 38038U 11079A   26145.19252456  .00000169  00000+0  69820-4 0  99962 38038  98.4075 212.9805 0006882  27.2821  65.2455 14.38192505755901

JSON: /api/v1/satellites/38038 · /tle

For live sub-satellite position, see the globe view (requires WebGL).

§ Visibility from observer

Set your observer location to see the next 7 days of passes ≥ 10°. The values pass through the URL so the page stays shareable.

No JS? Fill the form by hand. The geolocation button needs JavaScript.

§ Radio — SatNOGS DB

ModeDescriptionDownlinkUplink
BPSK S-band telemetry 2.226 GHz

1 transmitter · refreshed weekly from db.satnogs.org